HLE07 EGSR-EGSR

Flight info

Callsign HLE07
Flight time 1h 3m
Altitude 1500
Route VFR HEMS
Aircraft A169/L-V/N

Departure

Time 2026-04-20 15:18
Airport Earls Colne Airfield (EGSR)

Arrival

Time 2026-04-20 16:22
Airport Earls Colne Airfield (EGSR)
Time Latitude Longitude Altitude Speed Heading
2026-04-20 15:16 51.91187 0.67675 229 ft 0 kts 210°
2026-04-20 15:17 51.91185 0.67667 240 ft 3 kts 243°
2026-04-20 15:17 51.91189 0.67651 243 ft 6 kts 46°
2026-04-20 15:18 51.91343 0.67997 435 ft 69 kts 59°
2026-04-20 15:18 51.91314 0.68889 801 ft 108 kts 120°
2026-04-20 15:18 51.90525 0.69480 1039 ft 135 kts 160°
2026-04-20 15:18 51.89536 0.69427 1028 ft 146 kts 181°
2026-04-20 15:19 51.88517 0.69247 1032 ft 148 kts 181°
2026-04-20 15:19 51.87500 0.69113 1019 ft 147 kts 178°
2026-04-20 15:19 51.86465 0.69005 1007 ft 147 kts 178°
2026-04-20 15:19 51.85444 0.68898 995 ft 147 kts 178°
2026-04-20 15:20 51.84429 0.68794 986 ft 146 kts 178°
2026-04-20 15:20 51.83415 0.68694 982 ft 146 kts 178°
2026-04-20 15:20 51.82401 0.68597 988 ft 145 kts 178°
2026-04-20 15:20 51.81391 0.68498 983 ft 145 kts 178°
2026-04-20 15:21 51.80392 0.68399 981 ft 145 kts 178°
2026-04-20 15:21 51.79387 0.68294 982 ft 145 kts 178°
2026-04-20 15:21 51.78373 0.68207 983 ft 144 kts 177°
2026-04-20 15:21 51.77373 0.68129 988 ft 144 kts 177°
2026-04-20 15:22 51.76390 0.68047 1082 ft 133 kts 176°
2026-04-20 15:22 51.75517 0.67919 1016 ft 122 kts 176°
2026-04-20 15:22 51.74693 0.67790 1008 ft 111 kts 176°
2026-04-20 15:22 51.73995 0.67654 1007 ft 94 kts 175°
2026-04-20 15:23 51.73366 0.67581 864 ft 88 kts 169°
2026-04-20 15:23 51.72778 0.67668 705 ft 74 kts 132°
2026-04-20 15:23 51.72790 0.68301 580 ft 63 kts 37°
2026-04-20 15:23 51.73169 0.68054 524 ft 72 kts 300°
2026-04-20 15:24 51.72882 0.67488 454 ft 77 kts 171°
2026-04-20 15:24 51.72751 0.68125 447 ft 72 kts 56°
2026-04-20 15:24 51.73201 0.67995 514 ft 80 kts 306°
2026-04-20 15:24 51.72996 0.67252 400 ft 80 kts 203°
2026-04-20 15:25 51.72594 0.67498 340 ft 73 kts 92°
2026-04-20 15:25 51.72754 0.67892 251 ft 23 kts 357°
2026-04-20 15:25 51.72838 0.67876 93 ft 8 kts
2026-04-20 15:25 51.72864 0.67859 81 ft 2 kts 355°
2026-04-20 15:26 51.72870 0.67857 76 ft 0 kts 353°
2026-04-20 15:46 51.72869 0.67856 79 ft 1 kts
2026-04-20 15:46 51.72836 0.67848 201 ft 13 kts
2026-04-20 15:47 51.72946 0.67808 498 ft 47 kts 348°
2026-04-20 15:47 51.73147 0.66985 700 ft 108 kts 284°
2026-04-20 15:47 51.72938 0.65875 1155 ft 106 kts 248°
2026-04-20 15:47 51.72632 0.64697 1121 ft 131 kts 251°
2026-04-20 15:48 51.72247 0.63243 1203 ft 147 kts 248°
2026-04-20 15:48 51.71821 0.61659 1173 ft 160 kts 248°
2026-04-20 15:48 51.71359 0.60003 1223 ft 162 kts 245°
2026-04-20 15:48 51.70884 0.58354 1241 ft 162 kts 245°
2026-04-20 15:49 51.70398 0.56705 1242 ft 163 kts 244°
2026-04-20 15:49 51.69909 0.55058 1246 ft 162 kts 244°
2026-04-20 15:49 51.69425 0.53423 1232 ft 163 kts 244°
2026-04-20 15:49 51.68938 0.51769 1215 ft 163 kts 244°
2026-04-20 15:50 51.68448 0.50115 1221 ft 162 kts 244°
2026-04-20 15:50 51.67966 0.48484 1216 ft 163 kts 244°
2026-04-20 15:50 51.67480 0.46841 1221 ft 163 kts 244°
2026-04-20 15:50 51.66987 0.45171 1228 ft 163 kts 244°
2026-04-20 15:51 51.66505 0.43550 1227 ft 163 kts 244°
2026-04-20 15:51 51.66015 0.41894 1221 ft 163 kts 244°
2026-04-20 15:51 51.65528 0.40248 1221 ft 162 kts 244°
2026-04-20 15:51 51.65038 0.38591 1222 ft 163 kts 244°
2026-04-20 15:52 51.64554 0.36949 1212 ft 163 kts 244°
2026-04-20 15:52 51.64070 0.35309 1221 ft 162 kts 244°
2026-04-20 15:52 51.63580 0.33650 1214 ft 163 kts 244°
2026-04-20 15:53 51.62598 0.30319 1219 ft 163 kts 244°
2026-04-20 15:53 51.62116 0.28678 1202 ft 163 kts 243°
2026-04-20 15:53 51.61630 0.26994 1198 ft 164 kts 244°
2026-04-20 15:53 51.61151 0.25346 1203 ft 163 kts 244°
2026-04-20 15:54 51.60662 0.23680 1224 ft 163 kts 244°
2026-04-20 15:54 51.60181 0.22046 1220 ft 163 kts 244°
2026-04-20 15:54 51.59699 0.20384 1209 ft 164 kts 244°
2026-04-20 15:54 51.59222 0.18728 1212 ft 164 kts 244°
2026-04-20 15:55 51.58761 0.17110 1222 ft 164 kts 243°
2026-04-20 15:55 51.58278 0.15428 1228 ft 164 kts 243°
2026-04-20 15:55 51.57807 0.13775 1224 ft 164 kts 244°
2026-04-20 15:55 51.57317 0.12095 1226 ft 164 kts 243°
2026-04-20 15:56 51.56816 0.10447 1222 ft 164 kts 242°
2026-04-20 15:56 51.56324 0.08788 1218 ft 164 kts 243°
2026-04-20 15:56 51.55828 0.07142 1219 ft 164 kts 243°
2026-04-20 15:56 51.55318 0.05479 1216 ft 164 kts 242°
2026-04-20 15:57 51.54802 0.03851 1208 ft 165 kts 242°
2026-04-20 15:57 51.54288 0.02207 1212 ft 165 kts 242°
2026-04-20 15:57 51.53767 0.00567 1217 ft 165 kts 242°
2026-04-20 15:57 51.53257 -0.01046 1366 ft 149 kts 239°
2026-04-20 15:58 51.52865 -0.02434 1255 ft 124 kts 242°
2026-04-20 15:58 51.52597 -0.03654 1061 ft 112 kts 247°
2026-04-20 15:58 51.52393 -0.04791 877 ft 97 kts 247°
2026-04-20 15:58 51.52169 -0.05725 739 ft 83 kts 240°
2026-04-20 15:59 51.51916 -0.06512 603 ft 76 kts 237°
2026-04-20 15:59 51.51560 -0.06681 597 ft 43 kts 111°
2026-04-20 15:59 51.51589 -0.06371 530 ft 34 kts 58°
2026-04-20 15:59 51.51726 -0.06051 453 ft 30 kts 53°
2026-04-20 16:00 51.51799 -0.05855 354 ft 11 kts 74°
2026-04-20 16:00 51.51804 -0.05835 336 ft 0 kts 60°
2026-04-20 16:00 51.51805 -0.05834 335 ft 0 kts 59°
2026-04-20 16:04 51.51805 -0.05835 335 ft 0 kts 54°
2026-04-20 16:05 51.51784 -0.05913 489 ft 15 kts 59°
2026-04-20 16:05 51.51828 -0.05754 934 ft 51 kts 63°
2026-04-20 16:05 51.52039 -0.04958 1345 ft 90 kts 59°
2026-04-20 16:05 51.52243 -0.04007 1272 ft 89 kts 65°
2026-04-20 16:06 51.52488 -0.02923 1156 ft 117 kts 65°
2026-04-20 16:06 51.52805 -0.01607 1158 ft 134 kts 66°
2026-04-20 16:06 51.53165 -0.00186 1228 ft 138 kts 62°
2026-04-20 16:06 51.53565 0.01209 1267 ft 138 kts 61°
2026-04-20 16:07 51.53952 0.02622 1254 ft 138 kts 62°
2026-04-20 16:07 51.54335 0.04037 1236 ft 139 kts 62°
2026-04-20 16:07 51.54724 0.05444 1227 ft 139 kts 62°
2026-04-20 16:07 51.55123 0.06855 1226 ft 138 kts 60°
2026-04-20 16:08 51.55551 0.08243 1218 ft 138 kts 60°
2026-04-20 16:08 51.55978 0.09627 1211 ft 139 kts 60°
2026-04-20 16:08 51.56408 0.11024 1222 ft 139 kts 60°
2026-04-20 16:08 51.56838 0.12408 1214 ft 139 kts 60°
2026-04-20 16:09 51.57266 0.13814 1217 ft 139 kts 60°
2026-04-20 16:09 51.57691 0.15188 1226 ft 138 kts 59°
2026-04-20 16:09 51.58112 0.16590 1213 ft 139 kts 60°
2026-04-20 16:09 51.58554 0.17972 1208 ft 138 kts 52°
2026-04-20 16:10 51.59225 0.19071 1209 ft 138 kts 42°
2026-04-20 16:10 51.59908 0.20157 1214 ft 138 kts 42°
2026-04-20 16:10 51.60598 0.21237 1223 ft 138 kts 42°
2026-04-20 16:10 51.61292 0.22311 1221 ft 138 kts 42°
2026-04-20 16:11 51.61982 0.23397 1215 ft 138 kts 42°
2026-04-20 16:11 51.62672 0.24474 1215 ft 138 kts 42°
2026-04-20 16:11 51.63365 0.25557 1214 ft 139 kts 42°
2026-04-20 16:11 51.64048 0.26632 1227 ft 138 kts 42°
2026-04-20 16:12 51.64737 0.27724 1241 ft 137 kts 42°
2026-04-20 16:12 51.65416 0.28788 1225 ft 138 kts 41°
2026-04-20 16:12 51.66097 0.29868 1219 ft 137 kts 42°
2026-04-20 16:12 51.66775 0.30947 1227 ft 136 kts 41°
2026-04-20 16:13 51.67455 0.32025 1216 ft 137 kts 42°
2026-04-20 16:13 51.68132 0.33099 1210 ft 137 kts 41°
2026-04-20 16:13 51.68808 0.34171 1214 ft 136 kts 41°
2026-04-20 16:13 51.69505 0.35206 1212 ft 136 kts 40°
2026-04-20 16:14 51.70201 0.36228 1219 ft 136 kts 40°
2026-04-20 16:14 51.70901 0.37258 1207 ft 137 kts 40°
2026-04-20 16:14 51.71616 0.38304 1211 ft 137 kts 40°
2026-04-20 16:14 51.72316 0.39328 1218 ft 137 kts 40°
2026-04-20 16:15 51.73019 0.40364 1223 ft 137 kts 39°
2026-04-20 16:15 51.73724 0.41409 1226 ft 137 kts 39°
2026-04-20 16:15 51.74424 0.42453 1227 ft 137 kts 40°
2026-04-20 16:15 51.75127 0.43499 1231 ft 136 kts 39°
2026-04-20 16:16 51.75840 0.44511 1226 ft 136 kts 39°
2026-04-20 16:16 51.76552 0.45539 1220 ft 136 kts 39°
2026-04-20 16:16 51.77258 0.46555 1211 ft 137 kts 39°
2026-04-20 16:16 51.77974 0.47580 1221 ft 137 kts 39°
2026-04-20 16:17 51.78685 0.48600 1222 ft 136 kts 39°
2026-04-20 16:17 51.79390 0.49614 1224 ft 137 kts 39°
2026-04-20 16:17 51.80107 0.50645 1232 ft 136 kts 38°
2026-04-20 16:17 51.80814 0.51660 1222 ft 137 kts 38°
2026-04-20 16:18 51.81526 0.52687 1219 ft 137 kts 39°
2026-04-20 16:18 51.82235 0.53712 1223 ft 137 kts 39°
2026-04-20 16:18 51.82944 0.54719 1215 ft 137 kts 38°
2026-04-20 16:18 51.83670 0.55730 1210 ft 137 kts 38°
2026-04-20 16:19 51.84383 0.56730 1209 ft 136 kts 38°
2026-04-20 16:19 51.85069 0.57705 1276 ft 124 kts 37°
2026-04-20 16:19 51.85692 0.58615 1201 ft 121 kts 37°
2026-04-20 16:19 51.86327 0.59527 1166 ft 121 kts 37°
2026-04-20 16:20 51.86960 0.60428 1162 ft 121 kts 37°
2026-04-20 16:20 51.87595 0.61333 1173 ft 121 kts 37°
2026-04-20 16:20 51.88206 0.62238 1163 ft 110 kts 37°
2026-04-20 16:20 51.88692 0.63008 1093 ft 91 kts 36°
2026-04-20 16:21 51.89128 0.63723 860 ft 88 kts 36°
2026-04-20 16:21 51.89579 0.64340 784 ft 82 kts 31°
2026-04-20 16:21 51.90033 0.64880 749 ft 77 kts 29°
2026-04-20 16:21 51.90381 0.65461 639 ft 66 kts 43°
2026-04-20 16:22 51.90621 0.65967 527 ft 49 kts 62°
2026-04-20 16:22 51.90787 0.66411 467 ft 45 kts 64°
2026-04-20 16:22 51.90939 0.66851 424 ft 41 kts 64°
2026-04-20 16:22 51.91065 0.67205 353 ft 30 kts 65°
2026-04-20 16:23 51.91150 0.67467 309 ft 23 kts 60°
2026-04-20 16:23 51.91218 0.67655 277 ft 15 kts 67°
2026-04-20 16:23 51.91238 0.67734 244 ft 4 kts 130°
2026-04-20 16:23 51.91196 0.67684 239 ft 4 kts 220°
2026-04-20 16:24 51.91189 0.67676 234 ft 0 kts 221°